Theta_e
296 295 295 295 296 295 296 297 297 296 296 296 296 297 298 303 299 297 299 299 301 302 303 302 304 307 312 315 318 322 326 321 317 314 314 315 314 316 315 315 315 317 319 333 343
295 295 295 295 295 294 294 295 296 295 296 296 297 297 299 304 304 296 298 297 297 298 297 299 301 304 308 314 317 322 322 322 318 316 315 316 315 315 315 314 315 317 336 340 342
295 295 295 295 295 294 294 295 295 295 295 296 296 297 299 305 303 296 296 295 295 294 294 295 298 302 307 309 314 317 322 320 320 318 316 316 315 313 313 313 314 318 341 341 340
294 294 294 294 294 294 294 294 295 295 295 296 296 298 298 300 300 293 294 293 293 292 292 295 298 303 307 309 311 315 317 320 320 319 317 315 314 313 313 313 314 314 335 341 340
294 294 294 294 294 293 293 294 295 294 294 295 296 295 297 295 293 292 292 291 291 291 292 293 295 298 304 308 309 310 312 317 319 318 318 319 314 314 313 314 314 314 326 339 337
294 294 293 293 293 293 293 294 294 293 293 292 297 298 294 293 292 292 291 291 291 291 292 293 294 296 298 303 308 310 311 312 315 318 318 318 316 315 314 313 314 315 315 337 337
294 294 293 293 293 293 293 293 293 293 293 292 294 295 296 291 292 292 292 291 290 291 293 295 294 294 298 303 307 308 311 310 313 316 317 317 315 315 315 314 314 315 315 333 336
294 294 294 293 293 293 293 292 293 293 292 292 293 296 293 292 292 292 291 290 291 292 294 294 296 295 297 299 304 307 310 312 311 313 315 317 317 315 315 314 314 314 315 316 332
294 294 294 293 293 293 293 293 293 293 292 292 292 294 293 292 291 292 291 289 291 293 294 295 297 296 299 301 302 305 308 311 311 313 315 317 318 316 315 314 314 315 315 317 332
294 294 294 294 293 293 293 294 295 294 293 293 293 294 292 291 291 291 290 290 291 293 293 293 296 299 299 301 303 303 306 309 311 310 314 316 316 315 316 314 313 314 315 317 323
294 294 294 294 294 293 293 296 296 295 292 291 291 291 291 291 292 291 289 289 290 292 291 293 294 298 296 296 298 299 302 305 306 308 312 314 315 315 315 315 314 313 314 318 327
294 294 294 294 293 293 292 293 293 292 296 291 291 292 291 291 292 290 289 289 290 291 291 292 294 294 294 295 297 299 299 302 305 306 309 311 314 314 315 314 312 312 313 322 329
294 293 293 293 294 292 294 291 292 293 297 292 292 291 291 291 291 290 289 288 290 290 290 291 292 293 293 294 294 295 297 302 304 305 307 311 310 312 314 310 307 305 307 311 314
293 293 293 293 294 292 294 290 291 293 298 293 292 291 291 291 291 290 289 288 290 289 290 293 291 292 292 292 292 293 296 296 299 303 308 309 315 312 313 311 303 299 299 300 303
293 293 293 293 293 291 290 290 291 294 303 293 292 291 291 290 290 290 289 288 289 289 290 290 291 291 291 290 290 293 293 294 295 301 305 306 315 315 312 311 301 296 294 295 296
293 293 293 293 292 290 290 289 293 299 294 293 292 291 291 291 290 290 289 288 289 289 289 290 291 291 289 289 293 289 293 296 299 302 305 305 312 313 309 302 297 293 291 291 293
293 293 293 292 291 291 291 293 301 295 293 291 290 290 291 290 289 290 289 287 287 287 287 289 291 291 289 288 289 286 289 289 294 303 305 306 307 296 293 290 291 290 288 287 289
293 293 292 292 291 293 294 295 294 293 291 291 290 290 290 289 288 289 289 286 287 286 287 286 287 286 286 285 285 286 289 291 295 303 303 304 298 292 291 289 287 286 285 285 287
293 293 292 292 293 295 295 294 292 290 290 289 290 289 289 289 288 288 287 286 286 286 286 287 285 289 288 287 285 283 285 286 288 293 300 293 292 293 290 288 286 285 284 284 284
293 293 292 292 293 294 295 292 292 290 289 289 289 289 288 288 287 287 287 288 287 287 287 286 288 287 288 286 284 286 284 284 288 295 302 292 289 289 289 288 286 285 284 283 283
293 295 292 292 293 293 292 290 290 289 289 288 288 288 288 287 286 287 286 288 287 286 287 288 285 285 289 281 279 284 282 282 284 287 294 296 287 287 287 287 287 285 284 283 282
294 297 292 294 294 292 289 288 288 288 288 289 289 288 287 287 286 287 287 287 287 286 286 287 285 284 285 282 282 282 282 282 283 285 286 291 285 287 286 286 286 285 284 283 282
294 293 291 293 292 291 289 289 287 287 288 287 287 288 288 286 286 286 287 287 286 286 287 286 285 283 286 284 284 282 282 281 282 284 287 290 285 283 283 284 284 284 283 283 282
294 297 292 290 290 291 291 288 288 287 287 287 287 287 286 286 286 286 286 286 286 286 287 285 286 286 284 282 281 282 283 281 281 285 283 284 281 282 282 282 282 282 282 282 282
294 291 290 291 289 289 289 288 287 286 286 287 287 286 286 285 286 286 285 285 286 286 284 284 282 287 283 284 284 284 283 282 280 281 280 280 279 280 281 281 281 281 281 281 281
294 291 289 288 288 289 288 287 287 286 286 286 286 285 285 284 283 281 283 285 285 285 283 283 282 284 285 287 285 284 283 282 282 280 281 281 278 280 281 281 280 279 280 280 280
290 291 294 288 289 290 288 287 286 286 286 285 285 285 285 284 283 283 284 285 285 284 282 282 281 284 285 286 286 285 280 281 281 280 279 280 278 281 281 281 280 279 279 279 278
Wind_Speed
20 20 20 21 22 22 22 21 21 21 21 20 19 16 11 14 11 19 21 22 23 22 21 19 16 14 14 22 19 20 9 17 23 20 14 18 11 20 19 14 20 18 11 15 34
18 18 19 20 22 23 22 22 22 22 21 20 18 15 11 9 3 19 22 24 24 22 19 19 22 17 17 14 14 14 16 22 10 14 10 16 21 16 11 11 21 17 12 23 34
17 17 18 20 22 22 22 22 21 21 20 19 18 17 15 7 2 16 25 28 25 22 19 20 20 22 19 19 20 21 25 10 19 26 26 20 10 7 5 8 15 18 24 26 31
16 16 17 19 21 21 20 18 17 17 16 15 13 14 12 9 4 20 24 27 26 24 19 16 16 20 17 13 17 15 26 27 31 28 20 6 5 7 14 9 21 21 25 28 31
16 17 17 18 19 19 18 16 14 15 14 13 11 11 9 9 11 21 25 28 27 24 19 19 20 20 16 13 20 23 21 29 27 36 35 26 9 8 18 18 15 12 25 33 31
16 17 17 17 18 18 17 14 12 12 14 14 9 11 11 9 18 23 27 31 29 26 22 19 15 16 21 19 16 16 26 29 32 29 26 20 12 14 11 24 20 16 15 35 36
16 18 16 16 19 19 16 11 12 15 14 15 8 8 4 9 22 22 26 34 30 23 25 20 18 18 11 14 17 23 20 21 20 18 24 24 19 22 19 24 20 18 16 24 35
17 18 17 16 19 19 16 10 14 15 12 9 17 4 4 10 28 17 31 41 27 19 21 24 19 20 22 17 16 11 15 19 18 18 18 24 25 13 24 27 25 23 21 20 34
18 20 19 17 19 19 17 13 12 13 13 6 13 4 3 16 33 21 33 43 27 25 21 13 11 18 15 11 11 10 12 18 15 16 13 23 20 13 20 30 26 21 21 25 29
18 20 20 19 18 20 17 13 8 9 11 6 9 2 14 26 30 25 37 36 23 27 15 20 9 8 10 8 10 5 10 12 17 21 18 20 20 17 20 32 29 25 22 26 23
17 19 20 20 18 22 18 10 8 2 16 8 7 6 19 24 13 30 40 31 27 21 13 16 4 7 9 10 10 12 10 11 13 15 21 25 22 20 27 15 26 24 26 22 24
16 18 20 20 17 21 17 8 6 5 2 5 9 5 18 26 18 29 37 25 23 14 18 8 11 12 13 12 12 9 13 13 14 17 16 24 19 20 24 6 4 5 4 11 23
16 17 19 19 16 21 16 12 5 4 5 4 5 10 23 24 17 28 36 26 15 16 16 8 15 16 16 12 16 11 9 11 14 15 15 13 21 19 14 17 16 16 12 13 12
16 17 19 17 11 15 10 12 5 3 3 4 6 8 31 19 14 25 27 20 13 12 12 5 16 14 14 15 16 11 13 17 14 7 4 6 9 24 18 11 11 14 15 12 10
13 18 20 18 12 13 16 10 4 3 2 6 4 9 25 22 22 20 24 22 13 18 10 12 11 13 13 14 15 6 18 16 14 8 7 13 6 16 16 12 10 10 15 13 9
12 15 20 17 18 19 16 8 3 1 4 3 6 19 16 18 20 19 21 26 10 9 15 14 12 10 6 18 7 13 9 15 8 4 4 12 5 11 5 8 6 11 14 14 9
12 9 19 17 18 17 12 5 2 5 9 10 10 15 12 16 16 15 14 16 11 9 18 13 12 5 17 11 11 20 7 3 1 5 5 3 10 7 13 16 16 13 16 16 12
10 7 19 19 17 14 10 1 8 5 5 10 13 18 9 18 11 15 7 9 9 7 10 8 6 6 9 5 7 12 5 4 4 3 8 4 5 6 12 17 18 19 17 17 18
8 4 21 15 13 15 6 6 3 5 7 12 16 6 8 15 9 11 5 4 5 11 9 5 5 6 6 3 13 9 6 3 5 5 2 6 3 7 12 14 18 20 21 22 20
6 4 18 13 12 11 5 5 2 5 9 8 8 7 14 16 12 12 7 8 10 16 18 5 5 3 4 4 10 4 2 4 2 4 1 5 4 6 14 14 13 16 20 22 22
5 1 15 6 10 10 3 3 2 5 7 5 6 8 12 14 13 11 6 3 13 11 19 12 2 8 6 5 3 6 5 4 4 3 3 2 4 7 11 13 11 15 19 22 23
4 1 11 4 4 6 3 2 4 6 5 3 6 6 8 14 7 7 10 9 16 17 13 7 3 4 3 3 3 4 3 4 2 6 5 3 3 6 9 13 16 18 18 20 23
2 2 11 6 3 3 3 3 2 5 5 5 4 5 10 9 5 7 9 12 20 9 10 9 4 5 0 1 1 4 5 3 6 4 2 2 3 9 18 17 20 18 20 20 23
2 0 6 12 7 3 3 4 4 4 2 5 7 9 10 8 8 7 12 12 21 6 18 13 3 4 2 3 4 4 9 8 7 3 6 4 4 9 11 10 16 19 19 20 23
3 3 2 2 5 7 1 2 5 5 3 5 3 9 9 3 10 6 8 12 9 14 18 4 3 6 5 6 8 5 6 7 6 7 4 2 3 5 5 6 14 15 16 17 20
2 4 5 3 2 3 2 3 4 3 1 4 5 10 8 3 2 5 7 6 4 9 8 9 3 12 11 9 8 8 7 7 4 5 2 2 2 3 1 5 12 15 15 15 16
5 9 4 3 2 1 2 2 2 4 3 3 6 9 7 6 12 15 13 11 11 5 6 5 5 6 3 4 9 3 3 5 2 2 2 3 2 6 4 7 7 10 13 13 14
Wind_Direction
37 33 29 27 27 23 22 20 20 19 15 13 11 4 3 100 57 21 26 357 341 334 326 323 319 310 278 252 255 222 235 234 229 228 241 272 278 229 204 228 235 224 208 193 173
33 30 28 27 28 24 23 22 21 19 19 20 20 25 49 100 121 23 1 350 343 336 332 320 310 309 290 252 244 220 234 236 236 242 245 255 265 254 175 214 241 204 139 161 168
27 25 26 26 26 24 22 21 20 19 21 22 28 41 46 60 23 358 346 346 342 335 323 309 298 283 269 260 248 250 241 248 234 242 250 243 292 225 205 197 230 200 154 167 169
21 21 22 23 23 21 20 19 18 19 25 30 44 52 42 351 9 347 343 344 339 333 325 316 309 278 263 245 254 262 256 239 263 252 266 263 291 315 238 241 214 238 180 170 174
15 14 19 20 19 17 17 15 15 14 20 21 47 45 23 53 0 340 340 344 342 335 322 311 297 294 270 267 241 261 263 266 254 259 267 271 255 268 282 250 230 256 192 180 180
10 11 16 16 14 13 11 8 15 8 13 7 16 41 40 67 355 336 339 342 343 332 315 302 278 279 292 280 264 280 256 252 256 270 266 253 250 235 247 253 252 234 233 188 180
9 12 14 14 12 9 4 11 12 347 334 4 13 19 344 15 347 339 339 336 337 320 308 298 282 263 282 287 285 273 274 261 254 269 263 275 246 231 237 249 247 240 234 190 187
9 12 12 11 13 3 355 348 349 356 352 19 14 9 86 360 343 348 338 339 343 330 306 296 274 261 264 271 292 291 253 246 240 232 254 255 251 234 219 244 254 239 218 229 196
4 10 8 10 12 4 353 341 345 14 354 14 353 21 60 337 354 353 340 341 343 331 321 296 254 242 265 244 264 252 261 235 235 223 222 222 243 227 233 216 239 232 221 222 198
1 6 4 6 7 5 2 0 353 9 5 353 352 77 2 341 339 346 343 349 343 336 345 343 302 218 232 239 246 289 263 262 248 215 219 242 238 243 239 209 219 225 230 208 211
359 1 2 5 4 4 7 354 353 136 47 68 17 36 339 336 346 358 349 352 350 359 4 325 306 24 344 313 302 305 293 277 292 298 208 231 230 208 239 237 208 213 229 203 199
359 358 3 4 3 5 17 52 43 333 320 58 24 14 349 343 345 4 355 360 335 356 356 342 53 356 329 318 334 313 304 288 284 261 267 229 224 234 213 220 141 130 21 191 178
2 358 3 4 4 8 5 22 18 17 269 85 22 18 355 347 17 11 6 345 329 355 341 319 5 357 346 342 6 345 308 305 285 315 304 263 224 225 208 109 88 82 82 87 112
4 5 5 6 4 2 328 344 1 51 252 19 18 15 352 1 9 7 5 357 331 342 323 348 357 355 2 357 352 328 336 325 322 2 256 350 214 212 201 122 80 70 69 54 65
359 8 6 8 1 1 339 336 2 61 31 355 17 15 351 38 343 0 12 3 13 334 344 336 22 10 360 335 315 295 315 295 287 290 304 275 246 193 142 136 108 75 70 57 51
354 8 8 12 7 346 339 341 40 257 347 22 15 353 340 11 5 345 23 25 7 336 4 332 29 53 335 322 39 344 320 307 260 219 249 242 279 172 141 11 85 71 57 64 41
356 4 7 12 360 352 345 32 339 64 13 349 335 336 321 1 1 351 25 26 25 350 346 334 43 36 14 343 344 359 341 308 306 212 234 208 197 45 37 27 43 50 44 53 50
360 21 15 8 2 0 352 214 53 25 1 348 335 308 9 3 355 352 21 21 25 11 327 344 341 24 335 74 313 301 336 1 288 181 206 348 25 33 46 44 41 43 39 42 51
3 50 17 4 18 6 8 49 10 358 348 328 315 345 351 2 340 347 54 358 9 7 5 311 309 333 56 64 23 323 27 315 274 218 272 105 30 86 46 39 33 33 32 30 36
7 45 6 7 29 3 46 96 38 11 339 327 335 6 338 356 348 351 19 36 2 1 345 296 284 287 52 50 4 28 324 18 289 307 293 95 50 2 19 28 29 29 28 27 30
38 26 352 15 45 49 57 63 21 4 6 332 345 305 335 344 338 335 8 47 5 348 338 338 14 302 353 36 296 0 22 349 285 262 304 95 99 10 29 34 32 39 34 34 34
58 352 2 54 53 55 46 29 338 344 359 331 296 329 338 334 319 345 1 6 10 348 347 341 285 298 90 194 230 67 30 10 326 354 322 22 11 27 52 39 45 38 32 34 36
59 34 24 45 55 77 155 73 100 0 4 3 317 349 321 334 322 347 333 19 356 349 346 338 334 327 92 274 314 48 40 7 293 216 286 293 114 7 22 32 33 33 33 33 36
88 25 34 52 69 28 5 19 3 92 346 337 293 322 346 327 334 294 356 351 327 343 349 352 297 318 322 259 239 347 20 20 349 358 328 33 67 23 20 15 16 23 27 30 33
77 81 78 40 55 94 271 323 354 6 12 360 335 2 333 318 322 7 355 334 350 12 341 15 287 313 223 228 261 294 25 51 29 349 41 8 60 15 23 15 16 15 19 22 25
95 142 87 89 112 281 167 66 352 350 276 335 341 331 314 330 67 304 340 340 349 340 339 335 292 315 287 264 238 278 41 36 45 343 14 167 115 319 322 25 25 13 9 15 18
108 140 140 175 148 275 76 37 345 334 180 277 318 316 325 5 314 290 282 277 270 292 328 329 330 317 310 304 302 149 26 354 120 69 293 16 246 335 326 6 16 359 359 5 7